• In Latvia
  • List of Countries
  • For 7 days
  • Water Temperature
  • Satellite Maps
  • Weather Map
  • Weather Widgets
  • user-avatar
    Login

    Hourly Weather Campo Grande

    Today, 17 December, Sunday

    Time Temperature Precipitation Wind Pressure Humidity
    00:00 +26°C° 0 mm 2 mps 707 mmHg 76%
    01:00 +25°C° 0 mm 2 mps 707 mmHg 78%
    02:00 +25°C° 0 mm 2 mps 707 mmHg 79%
    03:00 +25°C° 0 mm 3 mps 707 mmHg 79%
    04:00 +25°C° 0 mm 3 mps 707 mmHg 80%
    05:00 +24°C° 0 mm 3 mps 707 mmHg 80%
    06:00 +26°C° 0 mm 4 mps 708 mmHg 74%
    07:00 +28°C° 0 mm 4 mps 709 mmHg 68%
    08:00 +30°C° 0 mm 5 mps 709 mmHg 62%
    09:00 +32°C° 0.4 mm 4 mps 709 mmHg 59%
    10:00 +33°C° 0.4 mm 4 mps 710 mmHg 56%
    11:00 +34°C° 0.4 mm 4 mps 710 mmHg 53%
    12:00 +34°C° 0.7 mm 3 mps 710 mmHg 52%
    13:00 +34°C° 0.7 mm 2 mps 709 mmHg 51%
    14:00 +34°C° 0.7 mm 1 mps 709 mmHg 50%
    15:00 +33°C° 0.1 mm 1 mps 709 mmHg 53%
    16:00 +32°C° 0.1 mm 1 mps 708 mmHg 56%
    17:00 +32°C° 0.1 mm 1 mps 708 mmHg 58%
    18:00 +30°C° 0.4 mm 1 mps 708 mmHg 63%
    19:00 +29°C° 0.4 mm 1 mps 708 mmHg 68%
    20:00 +27°C° 0.4 mm 2 mps 708 mmHg 73%
    21:00 +27°C° 0 mm 1 mps 709 mmHg 75%
    22:00 +26°C° 0 mm 1 mps 709 mmHg 76%
    23:00 +26°C° 0 mm 1 mps 709 mmHg 78%

    Tomorrow, 18 December, Monday

    Time Temperature Precipitation Wind Pressure Humidity
    00:00 +25°C° 0.1 mm 1 mps 709 mmHg 80%
    01:00 +25°C° 0.1 mm 1 mps 709 mmHg 81%
    02:00 +25°C° 0.1 mm 1 mps 708 mmHg 83%
    03:00 +24°C° 0.1 mm 2 mps 709 mmHg 84%
    04:00 +24°C° 0.1 mm 2 mps 709 mmHg 86%
    05:00 +24°C° 0.1 mm 2 mps 709 mmHg 88%
    06:00 +25°C° 0 mm 2 mps 709 mmHg 80%
    07:00 +27°C° 0 mm 3 mps 710 mmHg 73%
    08:00 +29°C° 0 mm 3 mps 711 mmHg 65%
    09:00 +30°C° 0.4 mm 3 mps 711 mmHg 60%
    10:00 +32°C° 0.4 mm 2 mps 711 mmHg 55%
    11:00 +34°C° 0.4 mm 2 mps 711 mmHg 50%
    12:00 +34°C° 0 mm 2 mps 710 mmHg 49%
    13:00 +34°C° 0 mm 1 mps 710 mmHg 47%
    14:00 +34°C° 0 mm 1 mps 709 mmHg 46%
    15:00 +33°C° 0.1 mm 1 mps 709 mmHg 52%
    16:00 +32°C° 0.1 mm 1 mps 709 mmHg 58%
    17:00 +30°C° 0.1 mm 2 mps 708 mmHg 64%
    18:00 +29°C° 0.6 mm 2 mps 709 mmHg 68%
    19:00 +28°C° 0.6 mm 2 mps 709 mmHg 71%
    20:00 +26°C° 0.6 mm 2 mps 709 mmHg 74%
    21:00 +26°C° 0 mm 2 mps 709 mmHg 75%
    22:00 +26°C° 0 mm 2 mps 710 mmHg 76%
    23:00 +25°C° 0 mm 3 mps 710 mmHg 77%

    Day after tomorrow, 19 December, Tuesday

    Time Temperature Precipitation Wind Pressure Humidity
    00:00 +25°C° 0 mm 3 mps 710 mmHg 78%
    01:00 +25°C° 0 mm 3 mps 709 mmHg 79%
    02:00 +24°C° 0 mm 2 mps 709 mmHg 81%
    03:00 +24°C° 0 mm 2 mps 709 mmHg 81%
    04:00 +24°C° 0 mm 2 mps 709 mmHg 81%
    05:00 +24°C° 0 mm 2 mps 709 mmHg 81%
    06:00 +25°C° 0 mm 3 mps 710 mmHg 74%
    07:00 +27°C° 0 mm 4 mps 711 mmHg 67%
    08:00 +29°C° 0 mm 5 mps 711 mmHg 59%
    09:00 +32°C° 0 mm 5 mps 711 mmHg 55%
    10:00 +33°C° 0 mm 4 mps 711 mmHg 51%
    11:00 +35°C° 0 mm 4 mps 711 mmHg 46%
    12:00 +35°C° 0 mm 4 mps 710 mmHg 46%
    13:00 +35°C° 0 mm 3 mps 709 mmHg 47%
    14:00 +35°C° 0 mm 3 mps 709 mmHg 47%
    15:00 +34°C° 0 mm 2 mps 708 mmHg 49%
    16:00 +34°C° 0 mm 2 mps 708 mmHg 52%
    17:00 +32°C° 0 mm 1 mps 708 mmHg 55%
    18:00 +31°C° 0.2 mm 1 mps 708 mmHg 58%
    19:00 +29°C° 0.2 mm 1 mps 708 mmHg 61%
    20:00 +28°C° 0.2 mm 1 mps 709 mmHg 64%
    21:00 +27°C° 1.3 mm 1 mps 709 mmHg 70%
    22:00 +26°C° 1.3 mm 1 mps 709 mmHg 76%
    23:00 +25°C° 1.3 mm 2 mps 709 mmHg 82%

    20 December, Wednesday

    Time Temperature Precipitation Wind Pressure Humidity
    00:00 +25°C° 0.6 mm 2 mps 708 mmHg 84%
    01:00 +25°C° 0.6 mm 1 mps 708 mmHg 85%
    02:00 +24°C° 0.6 mm 1 mps 708 mmHg 87%
    03:00 +24°C° 0.2 mm 1 mps 708 mmHg 87%
    04:00 +24°C° 0.2 mm 2 mps 708 mmHg 88%
    05:00 +24°C° 0.2 mm 2 mps 708 mmHg 88%
    06:00 +25°C° 0.8 mm 2 mps 709 mmHg 84%
    07:00 +26°C° 0.8 mm 3 mps 709 mmHg 80%
    08:00 +28°C° 0.8 mm 4 mps 710 mmHg 75%
    09:00 +29°C° 1.3 mm 4 mps 710 mmHg 71%
    10:00 +30°C° 1.3 mm 4 mps 710 mmHg 67%
    11:00 +32°C° 1.3 mm 4 mps 709 mmHg 62%
    12:00 +32°C° 1.5 mm 4 mps 709 mmHg 63%
    13:00 +31°C° 1.5 mm 3 mps 708 mmHg 63%
    14:00 +31°C° 1.5 mm 3 mps 708 mmHg 64%
    15:00 +30°C° 0.4 mm 2 mps 707 mmHg 66%
    16:00 +30°C° 0.4 mm 2 mps 707 mmHg 69%
    17:00 +29°C° 0.4 mm 1 mps 707 mmHg 72%
    18:00 +28°C° 0.1 mm 1 mps 707 mmHg 74%
    19:00 +27°C° 0.1 mm 1 mps 707 mmHg 77%
    20:00 +26°C° 0.1 mm 1 mps 707 mmHg 79%
    21:00 +26°C° 0.2 mm 2 mps 707 mmHg 80%
    22:00 +25°C° 0.2 mm 2 mps 707 mmHg 82%
    23:00 +25°C° 0.2 mm 2 mps 707 mmHg 83%

    21 December, Thursday

    Time Temperature Precipitation Wind Pressure Humidity
    00:00 +25°C° 0.7 mm 2 mps 706 mmHg 85%
    01:00 +24°C° 0.7 mm 2 mps 706 mmHg 87%
    02:00 +24°C° 0.7 mm 2 mps 705 mmHg 88%
    03:00 +24°C° 0.5 mm 2 mps 706 mmHg 89%
    04:00 +24°C° 0.5 mm 2 mps 706 mmHg 90%
    05:00 +24°C° 0.5 mm 2 mps 706 mmHg 90%
    06:00 +24°C° 1.5 mm 3 mps 707 mmHg 90%
    07:00 +25°C° 1.5 mm 3 mps 707 mmHg 89%
    08:00 +25°C° 1.5 mm 4 mps 708 mmHg 88%
    09:00 +26°C° 2.2 mm 4 mps 708 mmHg 87%
    10:00 +26°C° 2.2 mm 4 mps 708 mmHg 86%
    11:00 +26°C° 2.2 mm 4 mps 708 mmHg 85%
    12:00 +26°C° 2 mm 4 mps 708 mmHg 86%
    13:00 +26°C° 2 mm 3 mps 707 mmHg 87%
    14:00 +26°C° 2 mm 3 mps 707 mmHg 88%
    15:00 +26°C° 0.7 mm 2 mps 707 mmHg 88%
    16:00 +25°C° 0.7 mm 2 mps 706 mmHg 89%
    17:00 +25°C° 0.7 mm 1 mps 706 mmHg 89%
    18:00 +25°C° 0.1 mm 2 mps 706 mmHg 89%
    19:00 +24°C° 0.1 mm 2 mps 707 mmHg 89%
    20:00 +24°C° 0.1 mm 2 mps 707 mmHg 89%
    21:00 +24°C° 0.6 mm 2 mps 707 mmHg 90%
    22:00 +23°C° 0.6 mm 2 mps 707 mmHg 91%
    23:00 +23°C° 0.6 mm 2 mps 707 mmHg 92%

    22 December, Friday

    Time Temperature Precipitation Wind Pressure Humidity
    00:00 +23°C° 1.3 mm 2 mps 707 mmHg 92%
    01:00 +22°C° 1.3 mm 3 mps 706 mmHg 93%
    02:00 +22°C° 1.3 mm 3 mps 706 mmHg 93%
    03:00 +22°C° 0.9 mm 3 mps 706 mmHg 93%
    04:00 +22°C° 0.9 mm 3 mps 706 mmHg 93%
    05:00 +22°C° 0.9 mm 3 mps 706 mmHg 93%
    06:00 +22°C° 0.5 mm 3 mps 707 mmHg 93%
    07:00 +22°C° 0.5 mm 3 mps 707 mmHg 92%
    08:00 +24°C° 0.5 mm 3 mps 708 mmHg 92%
    09:00 +24°C° 0.6 mm 3 mps 708 mmHg 91%
    10:00 +25°C° 0.6 mm 3 mps 708 mmHg 90%
    11:00 +25°C° 0.6 mm 3 mps 708 mmHg 89%
    12:00 +26°C° 0.7 mm 3 mps 707 mmHg 84%
    13:00 +27°C° 0.7 mm 4 mps 707 mmHg 80%
    14:00 +29°C° 0.7 mm 4 mps 706 mmHg 75%
    15:00 +28°C° 0.3 mm 3 mps 706 mmHg 77%
    16:00 +28°C° 0.3 mm 2 mps 706 mmHg 78%
    17:00 +28°C° 0.3 mm 2 mps 706 mmHg 79%
    18:00 +27°C° 0 mm 2 mps 706 mmHg 82%
    19:00 +26°C° 0 mm 1 mps 706 mmHg 84%
    20:00 +25°C° 0 mm 1 mps 706 mmHg 87%
    21:00 +25°C° 0.2 mm 1 mps 706 mmHg 88%
    22:00 +24°C° 0.2 mm 2 mps 706 mmHg 89%
    23:00 +24°C° 0.2 mm 2 mps 706 mmHg 89%
    Show more